When you browse on this site, cookies collect data to enhance your experience and personalize the content and advertising you see.
Visit our Privacy Policy to learn more. By continuing to use the site, you agree to this use of cookies and data.

Météo par heure à Tuzhai

Ce jour, 3 Juillet, Vendredi

Heure Température Précipitation Vent Pression Humidité
00:00 +28°C° 0 mm 3 m/s 755 mmHg 91%
01:00 +28°C° 0 mm 3 m/s 754 mmHg 91%
02:00 +28°C° 0 mm 3 m/s 754 mmHg 91%
03:00 +28°C° 0 mm 3 m/s 754 mmHg 91%
04:00 +28°C° 0 mm 3 m/s 755 mmHg 91%
05:00 +28°C° 0 mm 3 m/s 755 mmHg 91%
06:00 +29°C° 0 mm 3 m/s 755 mmHg 87%
07:00 +30°C° 0 mm 4 m/s 755 mmHg 83%
08:00 +32°C° 0 mm 4 m/s 755 mmHg 77%
09:00 +33°C° 0 mm 5 m/s 755 mmHg 73%
10:00 +34°C° 0 mm 5 m/s 755 mmHg 69%
11:00 +35°C° 0 mm 6 m/s 756 mmHg 64%
12:00 +35°C° 0 mm 6 m/s 755 mmHg 64%
13:00 +35°C° 0 mm 7 m/s 754 mmHg 63%
14:00 +35°C° 0 mm 6 m/s 754 mmHg 63%
15:00 +34°C° 0 mm 6 m/s 754 mmHg 67%
16:00 +34°C° 0 mm 6 m/s 754 mmHg 70%
17:00 +33°C° 0 mm 6 m/s 754 mmHg 74%
18:00 +32°C° 0 mm 5 m/s 754 mmHg 76%
19:00 +30°C° 0 mm 5 m/s 755 mmHg 79%
20:00 +29°C° 0 mm 5 m/s 755 mmHg 81%
21:00 +29°C° 0 mm 5 m/s 756 mmHg 83%
22:00 +29°C° 0 mm 5 m/s 756 mmHg 84%
23:00 +29°C° 0 mm 5 m/s 756 mmHg 86%

Demain, 4 Juillet, Samedi

Heure Température Précipitation Vent Pression Humidité
00:00 +28°C° 0 mm 4 m/s 756 mmHg 88%
01:00 +28°C° 0 mm 4 m/s 755 mmHg 89%
02:00 +28°C° 0 mm 4 m/s 755 mmHg 91%
03:00 +28°C° 0 mm 4 m/s 755 mmHg 92%
04:00 +28°C° 0 mm 4 m/s 755 mmHg 93%
05:00 +27°C° 0 mm 4 m/s 756 mmHg 94%
06:00 +28°C° 0 mm 4 m/s 756 mmHg 89%
07:00 +30°C° 0 mm 4 m/s 756 mmHg 84%
08:00 +32°C° 0 mm 4 m/s 756 mmHg 80%
09:00 +33°C° 0 mm 5 m/s 756 mmHg 73%
10:00 +34°C° 0 mm 5 m/s 755 mmHg 67%
11:00 +36°C° 0 mm 6 m/s 755 mmHg 60%
12:00 +36°C° 0 mm 6 m/s 755 mmHg 60%
13:00 +36°C° 0 mm 6 m/s 754 mmHg 60%
14:00 +36°C° 0 mm 7 m/s 753 mmHg 60%
15:00 +36°C° 0 mm 7 m/s 753 mmHg 64%
16:00 +35°C° 0 mm 7 m/s 753 mmHg 67%
17:00 +34°C° 0 mm 6 m/s 753 mmHg 71%
18:00 +33°C° 0 mm 6 m/s 753 mmHg 76%
19:00 +32°C° 0 mm 6 m/s 753 mmHg 80%
20:00 +29°C° 0 mm 5 m/s 754 mmHg 85%
21:00 +29°C° 0 mm 5 m/s 754 mmHg 86%
22:00 +29°C° 0 mm 5 m/s 754 mmHg 87%
23:00 +29°C° 0 mm 5 m/s 755 mmHg 88%

Après-demain, 5 Juillet, Dimanche

Heure Température Précipitation Vent Pression Humidité
00:00 +29°C° 0 mm 5 m/s 754 mmHg 89%
01:00 +28°C° 0 mm 5 m/s 754 mmHg 90%
02:00 +28°C° 0 mm 5 m/s 753 mmHg 91%
03:00 +28°C° 0 mm 5 m/s 753 mmHg 92%
04:00 +28°C° 0 mm 5 m/s 753 mmHg 93%
05:00 +28°C° 0 mm 5 m/s 753 mmHg 94%
06:00 +29°C° 0 mm 5 m/s 753 mmHg 90%
07:00 +30°C° 0 mm 6 m/s 753 mmHg 85%
08:00 +32°C° 0 mm 6 m/s 754 mmHg 81%
09:00 +33°C° 0 mm 6 m/s 753 mmHg 74%
10:00 +34°C° 0 mm 7 m/s 753 mmHg 67%
11:00 +36°C° 0 mm 7 m/s 753 mmHg 61%
12:00 +36°C° 0 mm 7 m/s 753 mmHg 60%
13:00 +37°C° 0 mm 8 m/s 752 mmHg 60%
14:00 +37°C° 0 mm 8 m/s 752 mmHg 60%
15:00 +35°C° 0 mm 8 m/s 751 mmHg 64%
16:00 +34°C° 0 mm 8 m/s 751 mmHg 69%
17:00 +33°C° 0 mm 8 m/s 751 mmHg 74%
18:00 +32°C° 0.1 mm 7 m/s 751 mmHg 78%
19:00 +30°C° 0.1 mm 6 m/s 751 mmHg 83%
20:00 +29°C° 0.1 mm 6 m/s 752 mmHg 88%
21:00 +29°C° 0 mm 6 m/s 752 mmHg 89%
22:00 +29°C° 0 mm 5 m/s 752 mmHg 90%
23:00 +28°C° 0 mm 5 m/s 753 mmHg 91%

6 Juillet, Lundi

Heure Température Précipitation Vent Pression Humidité
00:00 +28°C° 0 mm 5 m/s 752 mmHg 91%
01:00 +28°C° 0 mm 6 m/s 752 mmHg 91%
02:00 +29°C° 0 mm 6 m/s 752 mmHg 91%
03:00 +28°C° 0 mm 6 m/s 752 mmHg 92%
04:00 +28°C° 0 mm 5 m/s 752 mmHg 92%
05:00 +28°C° 0 mm 5 m/s 752 mmHg 93%
06:00 +29°C° 0 mm 5 m/s 752 mmHg 88%
07:00 +30°C° 0 mm 6 m/s 753 mmHg 83%
08:00 +32°C° 0 mm 6 m/s 753 mmHg 79%
09:00 +33°C° 0 mm 6 m/s 753 mmHg 72%
10:00 +34°C° 0 mm 7 m/s 753 mmHg 66%
11:00 +36°C° 0 mm 7 m/s 753 mmHg 60%
12:00 +36°C° 0 mm 7 m/s 753 mmHg 60%
13:00 +37°C° 0 mm 8 m/s 752 mmHg 60%
14:00 +37°C° 0 mm 8 m/s 752 mmHg 59%
15:00 +35°C° 0 mm 8 m/s 752 mmHg 63%
16:00 +34°C° 0 mm 8 m/s 752 mmHg 68%
17:00 +33°C° 0 mm 7 m/s 752 mmHg 72%
18:00 +32°C° 0 mm 7 m/s 752 mmHg 75%
19:00 +30°C° 0 mm 6 m/s 753 mmHg 79%
20:00 +29°C° 0 mm 6 m/s 754 mmHg 82%
21:00 +29°C° 0 mm 6 m/s 754 mmHg 84%
22:00 +29°C° 0 mm 5 m/s 754 mmHg 85%
23:00 +29°C° 0 mm 5 m/s 754 mmHg 87%

7 Juillet, Mardi

Heure Température Précipitation Vent Pression Humidité
00:00 +28°C° 0 mm 5 m/s 754 mmHg 88%
01:00 +28°C° 0 mm 5 m/s 754 mmHg 89%
02:00 +28°C° 0 mm 5 m/s 754 mmHg 90%
03:00 +28°C° 0 mm 5 m/s 754 mmHg 91%
04:00 +28°C° 0 mm 5 m/s 754 mmHg 91%
05:00 +27°C° 0 mm 5 m/s 754 mmHg 92%
06:00 +28°C° 0 mm 5 m/s 754 mmHg 87%
07:00 +30°C° 0 mm 6 m/s 755 mmHg 82%
08:00 +32°C° 0 mm 6 m/s 755 mmHg 76%
09:00 +33°C° 0 mm 6 m/s 755 mmHg 72%
10:00 +34°C° 0 mm 7 m/s 755 mmHg 67%
11:00 +35°C° 0 mm 7 m/s 755 mmHg 63%
12:00 +35°C° 0 mm 7 m/s 754 mmHg 63%
13:00 +35°C° 0 mm 8 m/s 754 mmHg 63%
14:00 +35°C° 0 mm 8 m/s 754 mmHg 63%
15:00 +35°C° 0.1 mm 7 m/s 754 mmHg 67%
16:00 +34°C° 0.1 mm 7 m/s 753 mmHg 70%
17:00 +33°C° 0.1 mm 6 m/s 753 mmHg 74%
18:00 +32°C° 0.2 mm 6 m/s 754 mmHg 77%
19:00 +30°C° 0.2 mm 6 m/s 754 mmHg 81%
20:00 +29°C° 0.2 mm 5 m/s 755 mmHg 85%
21:00 +29°C° 0 mm 5 m/s 755 mmHg 86%
22:00 +29°C° 0 mm 5 m/s 755 mmHg 87%
23:00 +29°C° 0 mm 5 m/s 755 mmHg 87%

8 Juillet, Mercredi

Heure Température Précipitation Vent Pression Humidité
00:00 +29°C° 0 mm 5 m/s 755 mmHg 88%
01:00 +28°C° 0 mm 5 m/s 754 mmHg 89%
02:00 +28°C° 0 mm 5 m/s 754 mmHg 90%
03:00 +28°C° 0 mm 5 m/s 754 mmHg 91%
04:00 +28°C° 0 mm 4 m/s 754 mmHg 92%
05:00 +28°C° 0 mm 4 m/s 754 mmHg 93%
06:00 +29°C° 0 mm 5 m/s 754 mmHg 89%
07:00 +29°C° 0 mm 5 m/s 754 mmHg 85%
08:00 +30°C° 0 mm 5 m/s 755 mmHg 81%
09:00 +33°C° 0 mm 5 m/s 755 mmHg 75%
10:00 +34°C° 0 mm 5 m/s 754 mmHg 68%
11:00 +36°C° 0 mm 5 m/s 754 mmHg 61%
12:00 +36°C° 0 mm 6 m/s 754 mmHg 60%
13:00 +38°C° 0 mm 6 m/s 754 mmHg 59%
14:00 +38°C° 0 mm 7 m/s 753 mmHg 57%
15:00 +36°C° 0.5 mm 7 m/s 753 mmHg 64%
16:00 +34°C° 0.5 mm 7 m/s 753 mmHg 71%
17:00 +33°C° 0.5 mm 7 m/s 753 mmHg 78%
18:00 +32°C° 1 mm 7 m/s 753 mmHg 81%
19:00 +30°C° 1 mm 6 m/s 754 mmHg 85%
20:00 +29°C° 1 mm 6 m/s 754 mmHg 88%
21:00 +29°C° 2.6 mm 5 m/s 754 mmHg 89%
22:00 +28°C° 2.6 mm 3 m/s 755 mmHg 90%
23:00 +28°C° 2.6 mm 2 m/s 755 mmHg 92%
Voir plus